Time,TemperatureF,DewpointF,PressureIn,WindDirection,WindDirectionDegrees,WindSpeedMPH,WindSpeedGustMPH,Humidity,HourlyPrecipIn,Conditions,Clouds,dailyrainin,SolarRadiationWatts/m^2,SoftwareType,DateUTC
2013-01-22 00:05:00,48.0,34.0,30.18,WNW,283,5.0,13.0,57,0.00,,,0.00,0.000000,,2013-01-22 05:05:00,
2013-01-22 00:12:00,48.0,34.0,30.18,WNW,283,5.0,13.0,57,0.00,,,0.00,0.000000,,2013-01-22 05:12:00,
2013-01-22 00:43:00,49.0,32.0,30.20,NW,309,10.0,18.0,52,0.00,,,0.00,0.000000,,2013-01-22 05:43:00,
2013-01-22 00:53:00,49.0,32.0,30.20,NW,309,10.0,18.0,52,0.00,,,0.00,0.000000,,2013-01-22 05:53:00,
2013-01-22 01:02:00,49.0,32.0,30.20,NW,309,10.0,18.0,52,0.00,,,0.00,0.000000,,2013-01-22 06:02:00,
2013-01-22 01:12:00,49.0,32.0,30.20,NW,309,10.0,18.0,52,0.00,,,0.00,0.000000,,2013-01-22 06:12:00,
2013-01-22 01:33:00,46.0,32.0,30.20,NW,316,6.0,14.0,57,0.00,,,0.00,0.000000,,2013-01-22 06:33:00,
2013-01-22 01:43:00,46.0,32.0,30.20,NW,316,6.0,14.0,57,0.00,,,0.00,0.000000,,2013-01-22 06:43:00,
2013-01-22 01:53:00,46.0,32.0,30.20,NW,316,6.0,14.0,57,0.00,,,0.00,0.000000,,2013-01-22 06:53:00,
2013-01-22 02:02:00,46.0,32.0,30.20,NW,316,6.0,14.0,57,0.00,,,0.00,0.000000,,2013-01-22 07:02:00,
2013-01-22 02:12:00,46.0,32.0,30.20,NW,316,6.0,14.0,57,0.00,,,0.00,0.000000,,2013-01-22 07:12:00,
2013-01-22 02:33:00,41.0,30.0,30.22,WNW,298,4.0,9.0,65,0.00,,,0.00,0.000000,,2013-01-22 07:33:00,
2013-01-22 02:43:00,41.0,30.0,30.22,WNW,298,4.0,9.0,65,0.00,,,0.00,0.000000,,2013-01-22 07:43:00,
2013-01-22 02:53:00,41.0,30.0,30.22,WNW,298,4.0,9.0,65,0.00,,,0.00,0.000000,,2013-01-22 07:53:00,
2013-01-22 03:02:00,41.0,30.0,30.22,WNW,298,4.0,9.0,65,0.00,,,0.00,0.000000,,2013-01-22 08:02:00,
2013-01-22 03:12:00,41.0,30.0,30.22,WNW,298,4.0,9.0,65,0.00,,,0.00,0.000000,,2013-01-22 08:12:00,
2013-01-22 03:43:00,38.0,30.0,30.24,WNW,292,4.0,7.0,74,0.00,,,0.00,0.000000,,2013-01-22 08:43:00,
2013-01-22 03:53:00,38.0,30.0,30.24,WNW,292,4.0,7.0,74,0.00,,,0.00,0.000000,,2013-01-22 08:53:00,
2013-01-22 04:02:00,38.0,30.0,30.24,WNW,292,4.0,7.0,74,0.00,,,0.00,0.000000,,2013-01-22 09:02:00,
2013-01-22 04:12:00,38.0,30.0,30.24,WNW,292,4.0,7.0,74,0.00,,,0.00,0.000000,,2013-01-22 09:12:00,
2013-01-22 04:33:00,37.0,31.0,30.25,WNW,299,5.0,8.0,78,0.00,,,0.00,0.000000,,2013-01-22 09:33:00,
2013-01-22 04:43:00,37.0,31.0,30.25,WNW,299,5.0,8.0,78,0.00,,,0.00,0.000000,,2013-01-22 09:43:00,
2013-01-22 04:53:00,37.0,31.0,30.25,WNW,299,5.0,8.0,78,0.00,,,0.00,0.000000,,2013-01-22 09:53:00,
2013-01-22 05:03:00,37.0,31.0,30.25,WNW,299,5.0,8.0,78,0.00,,,0.00,0.000000,,2013-01-22 10:03:00,
2013-01-22 05:12:00,37.0,31.0,30.25,WNW,299,5.0,8.0,78,0.00,,,0.00,0.000000,,2013-01-22 10:12:00,
2013-01-22 05:43:00,34.0,27.0,30.27,NW,310,4.0,7.0,76,0.00,,,0.00,0.000000,,2013-01-22 10:43:00,
2013-01-22 05:53:00,34.0,27.0,30.27,NW,310,4.0,7.0,76,0.00,,,0.00,0.000000,,2013-01-22 10:53:00,
2013-01-22 06:02:00,34.0,27.0,30.27,NW,310,4.0,7.0,76,0.00,,,0.00,0.000000,,2013-01-22 11:02:00,
2013-01-22 06:12:00,34.0,27.0,30.27,NW,310,4.0,7.0,76,0.00,,,0.00,0.000000,,2013-01-22 11:12:00,
2013-01-22 06:33:00,33.0,26.0,30.30,NW,316,4.0,8.0,75,0.00,,,0.00,0.000000,,2013-01-22 11:33:00,
2013-01-22 06:43:00,33.0,26.0,30.30,NW,316,4.0,8.0,75,0.00,,,0.00,0.000000,,2013-01-22 11:43:00,
2013-01-22 06:53:00,33.0,26.0,30.30,NW,316,4.0,8.0,75,0.00,,,0.00,0.000000,,2013-01-22 11:53:00,
2013-01-22 07:04:00,33.0,26.0,30.30,NW,316,4.0,8.0,75,0.00,,,0.00,0.000000,,2013-01-22 12:04:00,
2013-01-22 07:13:00,33.0,26.0,30.30,NW,316,4.0,8.0,75,0.00,,,0.00,0.000000,,2013-01-22 12:13:00,
2013-01-22 07:43:00,36.0,25.0,30.35,North,349,6.0,10.0,63,0.00,,,0.00,0.000000,,2013-01-22 12:43:00,
2013-01-22 07:53:00,36.0,25.0,30.35,North,349,6.0,10.0,63,0.00,,,0.00,0.000000,,2013-01-22 12:53:00,
2013-01-22 08:04:00,36.0,25.0,30.35,North,349,6.0,10.0,63,0.00,,,0.00,0.000000,,2013-01-22 13:04:00,
2013-01-22 08:14:00,36.0,25.0,30.35,North,349,6.0,10.0,63,0.00,,,0.00,0.000000,,2013-01-22 13:14:00,
2013-01-22 08:34:00,36.0,21.0,30.38,NNW,348,5.0,13.0,55,0.00,,,0.00,19.000000,,2013-01-22 13:34:00,
2013-01-22 08:43:00,36.0,21.0,30.38,NNW,348,5.0,13.0,55,0.00,,,0.00,19.000000,,2013-01-22 13:43:00,
2013-01-22 08:54:00,36.0,21.0,30.38,NNW,348,5.0,13.0,55,0.00,,,0.00,19.000000,,2013-01-22 13:54:00,
2013-01-22 09:03:00,36.0,21.0,30.38,NNW,348,5.0,13.0,55,0.00,,,0.00,19.000000,,2013-01-22 14:03:00,
2013-01-22 09:13:00,36.0,21.0,30.38,NNW,348,5.0,13.0,55,0.00,,,0.00,19.000000,,2013-01-22 14:13:00,
2013-01-22 09:44:00,41.0,15.0,30.41,NNE,19,11.0,20.0,35,0.00,,,0.00,192.000000,,2013-01-22 14:44:00,
2013-01-22 09:54:00,41.0,15.0,30.41,NNE,19,11.0,20.0,35,0.00,,,0.00,192.000000,,2013-01-22 14:54:00,
2013-01-22 10:04:00,41.0,15.0,30.41,NNE,19,11.0,20.0,35,0.00,,,0.00,192.000000,,2013-01-22 15:04:00,
2013-01-22 10:13:00,41.0,15.0,30.41,NNE,19,11.0,20.0,35,0.00,,,0.00,192.000000,,2013-01-22 15:13:00,
2013-01-22 10:44:00,43.0,13.0,30.43,NNE,14,10.0,21.0,29,0.00,,,0.00,422.000000,,2013-01-22 15:44:00,
2013-01-22 10:54:00,43.0,13.0,30.43,NNE,14,10.0,21.0,29,0.00,,,0.00,422.000000,,2013-01-22 15:54:00,
2013-01-22 11:04:00,43.0,13.0,30.43,NNE,14,10.0,21.0,29,0.00,,,0.00,422.000000,,2013-01-22 16:04:00,
2013-01-22 11:13:00,43.0,13.0,30.43,NNE,14,10.0,21.0,29,0.00,,,0.00,422.000000,,2013-01-22 16:13:00,
2013-01-22 11:43:00,44.0,12.0,30.43,North,1,9.0,19.0,27,0.00,,,0.00,580.000000,,2013-01-22 16:43:00,
2013-01-22 11:54:00,44.0,12.0,30.43,North,1,9.0,19.0,27,0.00,,,0.00,580.000000,,2013-01-22 16:54:00,
2013-01-22 12:04:00,44.0,12.0,30.43,North,1,9.0,19.0,27,0.00,,,0.00,580.000000,,2013-01-22 17:04:00,
2013-01-22 12:13:00,44.0,12.0,30.43,North,1,9.0,19.0,27,0.00,,,0.00,580.000000,,2013-01-22 17:13:00,
2013-01-22 12:44:00,45.0,11.0,30.41,NNW,339,12.0,22.0,25,0.00,,,0.00,678.000000,,2013-01-22 17:44:00,
2013-01-22 12:54:00,45.0,11.0,30.41,NNW,339,12.0,22.0,25,0.00,,,0.00,678.000000,,2013-01-22 17:54:00,
2013-01-22 13:04:00,45.0,11.0,30.41,NNW,339,12.0,22.0,25,0.00,,,0.00,678.000000,,2013-01-22 18:04:00,
2013-01-22 13:13:00,45.0,11.0,30.41,NNW,339,12.0,22.0,25,0.00,,,0.00,678.000000,,2013-01-22 18:13:00,
2013-01-22 13:34:00,46.0,12.0,30.39,NNW,331,9.0,19.0,25,0.00,,,0.00,707.000000,,2013-01-22 18:34:00,
2013-01-22 13:44:00,46.0,12.0,30.39,NNW,331,9.0,19.0,25,0.00,,,0.00,707.000000,,2013-01-22 18:44:00,
2013-01-22 13:54:00,46.0,12.0,30.39,NNW,331,9.0,19.0,25,0.00,,,0.00,707.000000,,2013-01-22 18:54:00,
2013-01-22 14:04:00,46.0,12.0,30.39,NNW,331,9.0,19.0,25,0.00,,,0.00,707.000000,,2013-01-22 19:04:00,
2013-01-22 14:13:00,46.0,12.0,30.39,NNW,331,9.0,19.0,25,0.00,,,0.00,707.000000,,2013-01-22 19:13:00,
2013-01-22 14:44:00,47.0,12.0,30.38,North,351,8.0,19.0,24,0.00,,,0.00,663.000000,,2013-01-22 19:44:00,
2013-01-22 14:54:00,47.0,12.0,30.38,North,351,8.0,19.0,24,0.00,,,0.00,663.000000,,2013-01-22 19:54:00,
2013-01-22 15:03:00,47.0,12.0,30.38,North,351,8.0,19.0,24,0.00,,,0.00,663.000000,,2013-01-22 20:03:00,
2013-01-22 15:13:00,47.0,12.0,30.38,North,351,8.0,19.0,24,0.00,,,0.00,663.000000,,2013-01-22 20:13:00,
2013-01-22 15:43:00,48.0,12.0,30.38,NW,304,9.0,23.0,23,0.00,,,-99.99,552.000000,,2013-01-22 20:43:00,
2013-01-22 15:54:00,48.0,12.0,30.38,NW,304,9.0,23.0,23,0.00,,,-99.99,552.000000,,2013-01-22 20:54:00,
2013-01-22 16:04:00,48.0,12.0,30.38,NW,304,9.0,23.0,23,0.00,,,-99.99,552.000000,,2013-01-22 21:04:00,
2013-01-22 16:13:00,48.0,12.0,30.38,NW,304,9.0,23.0,23,0.00,,,-99.99,552.000000,,2013-01-22 21:13:00,
2013-01-22 16:43:00,46.0,9.0,30.40,NW,310,10.0,18.0,22,0.00,,,0.00,385.000000,,2013-01-22 21:43:00,
2013-01-22 16:53:00,46.0,9.0,30.40,NW,310,10.0,18.0,22,0.00,,,0.00,385.000000,,2013-01-22 21:53:00,
2013-01-22 17:03:00,46.0,9.0,30.40,NW,310,10.0,18.0,22,0.00,,,0.00,385.000000,,2013-01-22 22:03:00,
2013-01-22 17:13:00,46.0,9.0,30.40,NW,310,10.0,18.0,22,0.00,,,0.00,385.000000,,2013-01-22 22:13:00,
2013-01-22 17:43:00,42.0,11.0,30.42,NW,325,7.0,18.0,28,0.00,,,0.00,174.000000,,2013-01-22 22:43:00,
2013-01-22 17:53:00,42.0,11.0,30.42,NW,325,7.0,18.0,28,0.00,,,0.00,174.000000,,2013-01-22 22:53:00,
2013-01-22 18:03:00,42.0,11.0,30.42,NW,325,7.0,18.0,28,0.00,,,0.00,174.000000,,2013-01-22 23:03:00,
2013-01-22 18:12:00,42.0,11.0,30.42,NW,325,7.0,18.0,28,0.00,,,0.00,174.000000,,2013-01-22 23:12:00,
2013-01-22 18:43:00,34.0,17.0,30.44,North,352,4.0,11.0,49,0.00,,,0.00,10.000000,,2013-01-22 23:43:00,
2013-01-22 18:53:00,34.0,17.0,30.44,North,352,4.0,11.0,49,0.00,,,0.00,10.000000,,2013-01-22 23:53:00,
2013-01-22 19:03:00,34.0,17.0,30.44,North,352,4.0,11.0,49,0.00,,,0.00,10.000000,,2013-01-23 00:03:00,
2013-01-22 19:13:00,34.0,17.0,30.44,North,352,4.0,11.0,49,0.00,,,0.00,10.000000,,2013-01-23 00:13:00,
2013-01-22 19:43:00,29.0,19.0,30.45,NE,39,2.0,3.0,67,0.00,,,0.00,0.000000,,2013-01-23 00:43:00,
2013-01-22 19:53:00,29.0,19.0,30.45,NE,39,2.0,3.0,67,0.00,,,0.00,0.000000,,2013-01-23 00:53:00,
2013-01-22 20:03:00,29.0,19.0,30.45,NE,39,2.0,3.0,67,0.00,,,0.00,0.000000,,2013-01-23 01:03:00,
2013-01-22 20:13:00,29.0,19.0,30.45,NE,39,2.0,3.0,67,0.00,,,0.00,0.000000,,2013-01-23 01:13:00,
2013-01-22 20:43:00,28.0,27.0,30.47,NNE,24,2.0,3.0,97,0.00,,,0.00,0.000000,,2013-01-23 01:43:00,
2013-01-22 20:53:00,28.0,27.0,30.47,NNE,24,2.0,3.0,97,0.00,,,0.00,0.000000,,2013-01-23 01:53:00,
2013-01-22 21:03:00,28.0,27.0,30.47,NNE,24,2.0,3.0,97,0.00,,,0.00,0.000000,,2013-01-23 02:03:00,
2013-01-22 21:13:00,28.0,27.0,30.47,NNE,24,2.0,3.0,97,0.00,,,0.00,0.000000,,2013-01-23 02:13:00,
2013-01-22 21:43:00,28.0,24.0,30.47,NE,49,2.0,4.0,83,0.00,,,0.00,0.000000,,2013-01-23 02:43:00,
2013-01-22 21:54:00,28.0,24.0,30.47,NE,49,2.0,4.0,83,0.00,,,0.00,0.000000,,2013-01-23 02:54:00,
2013-01-22 22:03:00,28.0,24.0,30.47,NE,49,2.0,4.0,83,0.00,,,0.00,0.000000,,2013-01-23 03:03:00,
2013-01-22 22:13:00,28.0,24.0,30.47,NE,49,2.0,4.0,83,0.00,,,0.00,0.000000,,2013-01-23 03:13:00,
2013-01-22 22:33:00,29.0,20.0,30.48,ENE,68,3.0,5.0,68,0.00,,,0.00,0.000000,,2013-01-23 03:33:00,
2013-01-22 22:43:00,29.0,20.0,30.48,ENE,68,3.0,5.0,68,0.00,,,0.00,0.000000,,2013-01-23 03:43:00,
2013-01-22 22:53:00,29.0,20.0,30.48,ENE,68,3.0,5.0,68,0.00,,,0.00,0.000000,,2013-01-23 03:53:00,
2013-01-22 23:03:00,29.0,20.0,30.48,ENE,68,3.0,5.0,68,0.00,,,0.00,0.000000,,2013-01-23 04:03:00,
2013-01-22 23:13:00,29.0,20.0,30.48,ENE,68,3.0,5.0,68,0.00,,,0.00,0.000000,,2013-01-23 04:13:00,
2013-01-22 23:33:00,28.0,20.0,30.50,NE,40,3.0,5.0,70,0.00,,,0.00,0.000000,,2013-01-23 04:33:00,
2013-01-22 23:43:00,28.0,20.0,30.50,NE,40,3.0,5.0,70,0.00,,,0.00,0.000000,,2013-01-23 04:43:00,
2013-01-22 23:53:00,28.0,20.0,30.50,NE,40,3.0,5.0,70,0.00,,,0.00,0.000000,,2013-01-23 04:53:00,